Home > Weather > Leawood > Past weeks

Flag for USA Past Weather in Leawood, Kansas, USA — Yesterday and Last 2 Weeks

Now
74 °F

Sunny.


Feels Like: 77 °F
Forecast: 66 / 80 °F
Wind: 10 mph from Northeast

Location: Johnson County Executive Airport

Current Time: Jul 1, 2016 at 10:28:21 AM

Latest Report: Jul 1, 2016 at 9:53 AM


Visibility: 10 mi

Pressure: 30.10 "Hg

Humidity: 62%

Dew Point: 60 °F

Location of LeawoodLocation

Past Weather in Leawood — Graph

°F

Leawood Temperature Yesterday

Maximum temperature yesterday: 86 °F (at 2:53 PM)
Minimum temperature yesterday: 69 °F (at 3:53 AM)
Average temperature yesterday: 75 °F

High & Low Weather Summary for the Past Weeks

 TemperatureHumidityPressure
High97 °F (Jun 22, 4:53 PM)100% (Jun 27, 12:53 AM)30.20 "Hg (Jun 27, 12:53 AM)
Low66 °F (Jun 29, 3:53 AM)28% (Jun 23, 3:53 PM)29.74 "Hg (Jun 22, 6:53 PM)
Average80 °F68%30.00 "Hg
* Reported Jun 16 8:53 AM — Jul 1 8:53 AM, Leawood, Weather by CustomWeather, © 2016

Note: Actual official high and low records may vary slightly from our data, if they occured in-between our weather recording intervals... More about our weather records

Advertising

Leawood Weather History for the Previous 24 Hours

Scroll right to see more
 ConditionsComfort  
Time TempWeatherWind HumidityBarometerVisibility
8:53 AM
Fri, Jul 1
71 °FSunny.8 mph71%30.10 "Hg10 mi
7:53 AM68 °FSunny.10 mph76%30.08 "Hg10 mi
6:53 AM68 °FClear.10 mph73%30.06 "Hg10 mi
5:53 AM66 °FClear.No wind87%30.06 "Hg10 mi
4:53 AM67 °FClear.3 mph87%30.05 "Hg10 mi
3:53 AM69 °FClear.7 mph84%30.03 "Hg10 mi
2:53 AM68 °FClear.No wind90%30.01 "Hg10 mi
1:53 AM68 °FClear.No wind93%29.99 "Hg10 mi
12:53 AM69 °FClear.3 mph87%29.97 "Hg10 mi
11:53 PM
Thu, Jun 30
73 °FClear.5 mph76%29.98 "Hg10 mi
10:53 PM74 °FPassing clouds.8 mph79%29.97 "Hg10 mi
9:53 PM77 °FClear.3 mph74%29.94 "Hg10 mi
8:53 PM78 °FSunny.No wind74%29.91 "Hg10 mi
7:53 PM80 °FSunny.3 mph67%29.90 "Hg10 mi
6:53 PM82 °FSunny.6 mph60%29.90 "Hg10 mi
5:53 PM78 °FSunny.5 mph71%29.89 "Hg10 mi
4:53 PM73 °FSunny.No wind76%29.90 "Hg10 mi
4:01 PM72 °FThunderstorms. Scattered clouds.9 mph78%29.93 "Hg10 mi
3:53 PM70 °FStrong thunderstorms. Mostly cloudy.7 mph84%29.90 "Hg2 mi
2:53 PM86 °FPartly sunny.3 mph57%29.89 "Hg10 mi
1:53 PM84 °FPassing clouds.3 mph59%29.90 "Hg10 mi
12:53 PM83 °FSunny.6 mph68%29.91 "Hg10 mi
11:53 AM80 °FSunny.6 mph69%29.91 "Hg10 mi
10:53 AM80 °FSunny.6 mph67%29.93 "Hg10 mi
Weather by CustomWeather, © 2016

See weather overviewHow to use our weather pages